| time (UTC) | temp F | wind direction | speed knots | gust knots | rain 1hr in | rain 24hr in | rain mn in | humidity % | barometer mb |
| 20260502221032 | 56 | 333 | 4.3 | 9.6 | 0.00 | 0.00 | 0.00 | 43 | 1011.9 |
| 20260502220526 | 56 | 331 | 3.5 | 12.2 | 0.00 | 0.00 | 0.00 | 42 | 1012.0 |
| 20260502220105 | 56 | 298 | 5.2 | 12.2 | 0.00 | 0.00 | 0.00 | 42 | 1012.0 |
| 20260502215543 | 56 | 338 | 4.3 | 9.6 | 0.00 | 0.00 | 0.00 | 42 | 1012.0 |
| 20260502215042 | 57 | 291 | 6.1 | 9.6 | 0.00 | 0.00 | 0.00 | 41 | 1012.1 |
| 20260502214558 | 57 | 300 | 1.7 | 10.4 | 0.00 | 0.00 | 0.00 | 41 | 1012.0 |
| 20260502214035 | 57 | 318 | 4.3 | 9.6 | 0.00 | 0.00 | 0.00 | 42 | 1012.1 |
| 20260502213529 | 57 | 329 | 5.2 | 11.3 | 0.00 | 0.00 | 0.00 | 39 | 1012.1 |
| 20260502213025 | 57 | 280 | 5.2 | 13.0 | 0.00 | 0.00 | 0.00 | 40 | 1012.1 |
| 20260502212537 | 58 | 304 | 7.0 | 13.0 | 0.00 | 0.00 | 0.00 | 39 | 1012.0 |
| 20260502212056 | 58 | 296 | 7.8 | 12.2 | 0.00 | 0.00 | 0.00 | 40 | 1011.8 |
| 20260502211531 | 59 | 252 | 3.5 | 13.9 | 0.00 | 0.00 | 0.00 | 39 | 1011.8 |
| 20260502211024 | 59 | 342 | 7.0 | 13.9 | 0.00 | 0.00 | 0.00 | 38 | 1011.7 |
| 20260502210602 | 59 | 355 | 6.1 | 9.6 | 0.00 | 0.00 | 0.00 | 41 | 1011.7 |
| 20260502210037 | 58 | 295 | 6.1 | 13.0 | 0.00 | 0.00 | 0.00 | 41 | 1011.7 |
| 20260502205540 | 58 | 271 | 5.2 | 13.0 | 0.00 | 0.00 | 0.00 | 39 | 1011.7 |
| 20260502205033 | 58 | 246 | 6.1 | 10.4 | 0.00 | 0.00 | 0.00 | 41 | 1011.7 |
| 20260502204525 | 58 | 257 | 5.2 | 9.6 | 0.00 | 0.00 | 0.00 | 41 | 1011.7 |
| 20260502204044 | 58 | 292 | 6.1 | 9.6 | 0.00 | 0.00 | 0.00 | 42 | 1011.8 |
| 20260502203540 | 58 | 300 | 5.2 | 11.3 | 0.00 | 0.00 | 0.00 | 40 | 1011.8 |
| 20260502203040 | 58 | 327 | 6.1 | 13.9 | 0.00 | 0.00 | 0.00 | 41 | 1011.7 |
| 20260502202539 | 58 | 329 | 7.0 | 13.9 | 0.00 | 0.00 | 0.00 | 41 | 1011.8 |
| 20260502202040 | 58 | 355 | 5.2 | 12.2 | 0.00 | 0.00 | 0.00 | 40 | 1011.8 |
| 20260502201539 | 58 | 284 | 7.0 | 10.4 | 0.00 | 0.00 | 0.00 | 42 | 1011.8 |
| 20260502201038 | 58 | 10 | 3.5 | 11.3 | 0.00 | 0.00 | 0.00 | 43 | 1011.8 |
| 20260502200525 | 58 | 332 | 5.2 | 11.3 | 0.00 | 0.00 | 0.00 | 42 | 1011.9 |
| 20260502200045 | 58 | 246 | 4.3 | 13.0 | 0.00 | 0.00 | 0.00 | 40 | 1012.0 |
| 20260502195602 | 59 | 309 | 9.6 | 13.9 | 0.00 | 0.00 | 0.00 | 39 | 1012.1 |
| 20260502195041 | 59 | 299 | 8.7 | 13.9 | 0.00 | 0.00 | 0.00 | 39 | 1012.1 |
| 20260502194600 | 59 | 319 | 7.8 | 13.0 | 0.00 | 0.00 | 0.00 | 40 | 1012.2 |
| 20260502194042 | 59 | 311 | 5.2 | 9.6 | 0.00 | 0.00 | 0.00 | 41 | 1012.2 |
| 20260502193536 | 59 | 339 | 5.2 | 10.4 | 0.00 | 0.00 | 0.00 | 40 | 1012.3 |
| 20260502193032 | 59 | 253 | 5.2 | 11.3 | 0.00 | 0.00 | 0.00 | 42 | 1012.4 |
| 20260502192553 | 59 | 316 | 5.2 | 12.2 | 0.00 | 0.00 | 0.00 | 41 | 1012.5 |
| 20260502192032 | 60 | 296 | 7.0 | 14.8 | 0.00 | 0.00 | 0.00 | 39 | 1012.4 |
| 20260502191527 | 60 | 314 | 4.3 | 12.2 | 0.00 | 0.00 | 0.00 | 41 | 1012.6 |
| 20260502191027 | 60 | 302 | 7.0 | 12.2 | 0.00 | 0.00 | 0.00 | 39 | 1012.6 |
| 20260502190601 | 60 | 347 | 6.1 | 12.2 | 0.00 | 0.00 | 0.00 | 41 | 1012.5 |
| 20260502190037 | 60 | 287 | 5.2 | 11.3 | 0.00 | 0.00 | 0.00 | 38 | 1012.8 |
| 20260502185529 | 60 | 278 | 6.1 | 13.9 | 0.00 | 0.00 | 0.00 | 41 | 1012.7 |
| 20260502185026 | 60 | 323 | 10.4 | 13.9 | 0.00 | 0.00 | 0.00 | 39 | 1012.8 |
| 20260502184540 | 60 | 314 | 9.6 | 13.9 | 0.00 | 0.00 | 0.00 | 39 | 1012.7 |
| 20260502184041 | 59 | 238 | 3.5 | 10.4 | 0.00 | 0.00 | 0.00 | 42 | 1012.8 |
| 20260502183535 | 59 | 225 | 4.3 | 8.7 | 0.00 | 0.00 | 0.00 | 41 | 1012.9 |
| 20260502183030 | 59 | 279 | 3.5 | 9.6 | 0.00 | 0.00 | 0.00 | 41 | 1012.9 |
| 20260502182604 | 59 | 251 | 5.2 | 9.6 | 0.00 | 0.00 | 0.00 | 41 | 1012.9 |
| 20260502182042 | 59 | 260 | 1.7 | 8.7 | 0.00 | 0.00 | 0.00 | 43 | 1013.0 |
| 20260502181556 | 59 | 259 | 4.3 | 8.7 | 0.00 | 0.00 | 0.00 | 39 | 1013.1 |
| 20260502181032 | 59 | 261 | 0.9 | 8.7 | 0.00 | 0.00 | 0.00 | 42 | 1013.1 |
| 20260502180525 | 59 | 298 | 6.1 | 8.7 | 0.00 | 0.00 | 0.00 | 37 | 1013.2 |
| 20260502180105 | 60 | 273 | 2.6 | 10.4 | 0.00 | 0.00 | 0.00 | 39 | 1013.2 |
| 20260502164041 | 60 | 315 | 3.5 | 13.9 | 0.00 | 0.00 | 0.00 | 46 | 1013.4 |
| 20260502163539 | 60 | 287 | 5.2 | 13.9 | 0.00 | 0.00 | 0.00 | 43 | 1013.4 |
| 20260502163040 | 58 | 319 | 4.3 | 8.7 | 0.00 | 0.00 | 0.00 | 48 | 1013.4 |
| 20260502162533 | 58 | 346 | 3.5 | 7.8 | 0.00 | 0.00 | 0.00 | 45 | 1013.5 |
| 20260502162027 | 58 | 15 | 1.7 | 9.6 | 0.00 | 0.00 | 0.00 | 42 | 1013.5 |
| 20260502161542 | 57 | 332 | 4.3 | 9.6 | 0.00 | 0.00 | 0.00 | 41 | 1013.6 |
| 20260502161038 | 57 | 317 | 3.5 | 9.6 | 0.00 | 0.00 | 0.00 | 42 | 1013.6 |
| 20260502160530 | 57 | 325 | 3.5 | 9.6 | 0.00 | 0.00 | 0.00 | 42 | 1013.8 |
| 20260502152037 | 56 | 134 | 1.7 | 6.1 | 0.00 | 0.00 | 0.00 | 42 | 1013.8 |
| 20260502151530 | 56 | 232 | 1.7 | 7.0 | 0.00 | 0.00 | 0.00 | 44 | 1013.7 |
| 20260502151030 | 57 | 273 | 2.6 | 7.0 | 0.00 | 0.00 | 0.00 | 45 | 1013.8 |
| 20260502150524 | 57 | 318 | 3.5 | 7.0 | 0.00 | 0.00 | 0.00 | 45 | 1013.9 |
| 20260502130532 | 49 | 331 | 3.5 | 7.0 | 0.00 | 0.00 | 0.00 | 62 | 1014.2 |
| 20260502123542 | 46 | 308 | 1.7 | 7.8 | 0.00 | 0.00 | 0.00 | 68 | 1014.2 |
| 20260502123042 | 46 | 331 | 1.7 | 7.8 | 0.00 | 0.00 | 0.00 | 69 | 1014.2 |
| 20260502122541 | 46 | 338 | 4.3 | 7.8 | 0.00 | 0.00 | 0.00 | 68 | 1014.1 |
| 20260502122041 | 46 | 304 | 3.5 | 10.4 | 0.00 | 0.00 | 0.00 | 69 | 1014.1 |
| 20260502121540 | 45 | 309 | 5.2 | 10.4 | 0.00 | 0.00 | 0.00 | 69 | 1014.0 |
| 20260502121102 | 45 | 309 | 3.5 | 8.7 | 0.00 | 0.00 | 0.00 | 69 | 1014.1 |
| 20260502120541 | 45 | 22 | 2.6 | 8.7 | 0.00 | 0.00 | 0.00 | 71 | 1014.1 |
| 20260502115602 | 44 | 15 | 1.7 | 5.2 | 0.00 | 0.00 | 0.00 | 73 | 1014.3 |
| 20260502115040 | 44 | 5 | 0.9 | 7.0 | 0.00 | 0.00 | 0.00 | 73 | 1014.3 |
| 20260502114540 | 44 | 24 | 3.5 | 7.0 | 0.00 | 0.00 | 0.00 | 73 | 1014.3 |
| 20260502114037 | 44 | 326 | 1.7 | 5.2 | 0.00 | 0.00 | 0.00 | 74 | 1014.3 |
| 20260502113533 | 44 | 5 | 0.9 | 2.6 | 0.00 | 0.00 | 0.00 | 75 | 1014.3 |
| 20260502113034 | 43 | 57 | 0.0 | 2.6 | 0.00 | 0.00 | 0.00 | 75 | 1014.3 |
| 20260502112529 | 43 | 57 | 0.0 | 2.6 | 0.00 | 0.00 | 0.00 | 75 | 1014.3 |
| 20260502112026 | 43 | 57 | 0.9 | 1.7 | 0.00 | 0.00 | 0.00 | 75 | 1014.3 |
| 20260502111543 | 43 | 57 | 0.0 | 0.9 | 0.00 | 0.00 | 0.00 | 75 | 1014.1 |
| 20260502111042 | 43 | 57 | 0.0 | 0.9 | 0.00 | 0.00 | 0.00 | 75 | 1014.1 |
| 20260502110536 | 43 | 57 | 0.0 | 0.9 | 0.00 | 0.00 | 0.00 | 76 | 1014.1 |
| 20260502110058 | 43 | 57 | 0.0 | 2.6 | 0.00 | 0.00 | 0.00 | 76 | 1014.0 |
| 20260502105532 | 42 | 57 | 0.9 | 3.5 | 0.00 | 0.00 | 0.00 | 75 | 1014.1 |
| 20260502105053 | 42 | 49 | 1.7 | 3.5 | 0.00 | 0.00 | 0.00 | 75 | 1014.3 |
| 20260502104527 | 42 | 61 | 0.9 | 5.2 | 0.00 | 0.00 | 0.00 | 75 | 1014.4 |
| 20260502104025 | 42 | 355 | 1.7 | 5.2 | 0.00 | 0.00 | 0.00 | 75 | 1014.2 |
| 20260502103539 | 42 | 321 | 2.6 | 4.3 | 0.00 | 0.00 | 0.00 | 75 | 1014.0 |
| 20260502103041 | 42 | 325 | 1.7 | 4.3 | 0.00 | 0.00 | 0.00 | 75 | 1014.1 |
| 20260502102541 | 42 | 312 | 0.9 | 4.3 | 0.00 | 0.00 | 0.00 | 75 | 1014.3 |
| 20260502102043 | 42 | 331 | 2.6 | 4.3 | 0.00 | 0.00 | 0.00 | 75 | 1014.4 |
| 20260502101543 | 42 | 323 | 1.7 | 3.5 | 0.00 | 0.00 | 0.00 | 75 | 1014.4 |
| 20260502101025 | 42 | 316 | 1.7 | 4.3 | 0.00 | 0.00 | 0.00 | 75 | 1014.2 |
| 20260502100541 | 43 | 298 | 0.9 | 4.3 | 0.00 | 0.00 | 0.00 | 74 | 1014.1 |
| 20260502091040 | 44 | 300 | 0.9 | 6.1 | 0.00 | 0.00 | 0.00 | 73 | 1013.6 |
| 20260502090540 | 45 | 338 | 1.7 | 5.2 | 0.00 | 0.00 | 0.00 | 73 | 1013.7 |
| 20260502071526 | 46 | 286 | 2.6 | 7.8 | 0.00 | 0.00 | 0.00 | 71 | 1012.8 |
| 20260502071025 | 46 | 299 | 2.6 | 6.1 | 0.00 | 0.00 | 0.00 | 72 | 1012.7 |
| 20260502070600 | 46 | 325 | 1.7 | 3.5 | 0.00 | 0.00 | 0.00 | 74 | 1012.7 |
| 20260502070043 | 46 | 227 | 0.0 | 1.7 | 0.00 | 0.00 | 0.00 | 73 | 1012.7 |
| 20260502065542 | 47 | 304 | 0.0 | 6.1 | 0.00 | 0.00 | 0.00 | 71 | 1012.5 |
| 20260502065043 | 47 | 304 | 0.0 | 6.1 | 0.00 | 0.00 | 0.00 | 70 | 1012.4 |
| 20260502064536 | 47 | 293 | 0.9 | 3.5 | 0.00 | 0.00 | 0.00 | 71 | 1012.4 |
| 20260502064057 | 47 | 285 | 0.9 | 3.5 | 0.00 | 0.00 | 0.00 | 70 | 1012.4 |
| 20260502063530 | 47 | 294 | 0.9 | 2.6 | 0.00 | 0.00 | 0.00 | 70 | 1012.5 |
| 20260502063026 | 47 | 277 | 0.9 | 4.3 | 0.00 | 0.00 | 0.00 | 70 | 1012.5 |
| 20260502062541 | 47 | 282 | 0.9 | 6.1 | 0.00 | 0.00 | 0.00 | 70 | 1012.4 |
| 20260502062038 | 48 | 271 | 1.7 | 10.4 | 0.00 | 0.00 | 0.00 | 69 | 1012.4 |
| 20260502061529 | 48 | 268 | 3.5 | 10.4 | 0.00 | 0.00 | 0.00 | 70 | 1012.4 |
| 20260502061027 | 48 | 243 | 4.3 | 7.8 | 0.00 | 0.00 | 0.00 | 69 | 1012.7 |
| 20260502060546 | 48 | 180 | 4.3 | 7.8 | 0.00 | 0.00 | 0.00 | 70 | 1012.8 |
| 20260502060044 | 49 | 221 | 4.3 | 7.8 | 0.00 | 0.00 | 0.00 | 70 | 1012.8 |
| 20260502055601 | 49 | 257 | 2.6 | 6.1 | 0.00 | 0.00 | 0.00 | 70 | 1012.8 |
| 20260502055043 | 49 | 267 | 2.6 | 11.3 | 0.00 | 0.00 | 0.00 | 69 | 1012.7 |
| 20260502054542 | 49 | 230 | 5.2 | 11.3 | 0.00 | 0.00 | 0.00 | 70 | 1012.7 |
| 20260502054045 | 50 | 225 | 1.7 | 3.5 | 0.00 | 0.00 | 0.00 | 72 | 1012.8 |
| 20260502053524 | 50 | 150 | 1.7 | 2.6 | 0.00 | 0.00 | 0.00 | 72 | 1012.7 |
| 20260502053044 | 50 | 150 | 1.7 | 6.1 | 0.00 | 0.00 | 0.00 | 72 | 1012.7 |
| 20260502052535 | 50 | 141 | 0.9 | 6.1 | 0.00 | 0.00 | 0.00 | 71 | 1012.7 |
| 20260502052030 | 50 | 148 | 1.7 | 2.6 | 0.00 | 0.00 | 0.00 | 72 | 1012.7 |
| 20260502051524 | 50 | 148 | 0.9 | 1.7 | 0.00 | 0.00 | 0.00 | 71 | 1012.7 |
| 20260502051045 | 51 | 253 | 0.0 | 2.6 | 0.00 | 0.00 | 0.00 | 71 | 1012.6 |
| 20260502050543 | 51 | 294 | 0.0 | 7.0 | 0.00 | 0.00 | 0.00 | 71 | 1012.5 |
| 20260502050042 | 51 | 250 | 0.9 | 9.6 | 0.00 | 0.00 | 0.00 | 71 | 1012.7 |
| 20260502045541 | 51 | 269 | 5.2 | 9.6 | 0.00 | 0.00 | 0.00 | 72 | 1012.8 |
| 20260502045036 | 51 | 270 | 2.6 | 7.0 | 0.00 | 0.00 | 0.00 | 73 | 1012.7 |
| 20260502044531 | 51 | 251 | 3.5 | 7.0 | 0.00 | 0.00 | 0.00 | 73 | 1012.7 |
| 20260502044052 | 51 | 240 | 2.6 | 7.8 | 0.00 | 0.00 | 0.00 | 73 | 1012.6 |
| 20260502043525 | 51 | 246 | 3.5 | 7.8 | 0.00 | 0.00 | 0.00 | 74 | 1012.7 |
| 20260502043043 | 51 | 244 | 2.6 | 7.8 | 0.00 | 0.00 | 0.00 | 75 | 1012.8 |
| 20260502042541 | 51 | 252 | 2.6 | 7.8 | 0.00 | 0.00 | 0.00 | 75 | 1012.7 |
| 20260502042039 | 51 | 200 | 1.7 | 3.5 | 0.00 | 0.00 | 0.00 | 77 | 1012.6 |
| 20260502041534 | 51 | 238 | 1.7 | 6.1 | 0.00 | 0.00 | 0.00 | 76 | 1012.7 |
| 20260502041030 | 52 | 254 | 0.9 | 6.1 | 0.00 | 0.00 | 0.00 | 76 | 1012.5 |
| 20260502040542 | 52 | 228 | 0.9 | 1.7 | 0.00 | 0.00 | 0.00 | 75 | 1012.5 |
| 20260502040039 | 52 | 213 | 0.9 | 1.7 | 0.00 | 0.00 | 0.00 | 75 | 1012.4 |
| 20260502035541 | 52 | 213 | 0.0 | 1.7 | 0.00 | 0.00 | 0.00 | 75 | 1012.5 |
| 20260502035041 | 52 | 210 | 0.9 | 4.3 | 0.00 | 0.00 | 0.00 | 75 | 1012.5 |
| 20260502034541 | 52 | 193 | 0.9 | 4.3 | 0.00 | 0.00 | 0.00 | 74 | 1012.4 |
| 20260502034103 | 52 | 202 | 0.9 | 4.3 | 0.00 | 0.00 | 0.00 | 75 | 1012.3 |
| 20260502033542 | 52 | 194 | 3.5 | 4.3 | 0.00 | 0.00 | 0.00 | 74 | 1012.1 |
| 20260502033043 | 52 | 194 | 2.6 | 4.3 | 0.00 | 0.00 | 0.00 | 74 | 1012.1 |
| 20260502032541 | 52 | 207 | 0.0 | 3.5 | 0.00 | 0.00 | 0.00 | 75 | 1012.2 |
| 20260502032034 | 52 | 218 | 0.9 | 7.0 | 0.00 | 0.00 | 0.00 | 73 | 1012.2 |
| 20260502031528 | 53 | 248 | 2.6 | 7.0 | 0.00 | 0.00 | 0.00 | 72 | 1012.2 |
| 20260502031024 | 53 | 301 | 0.9 | 8.7 | 0.00 | 0.00 | 0.00 | 72 | 1012.1 |
| 20260502030541 | 53 | 273 | 2.6 | 9.6 | 0.00 | 0.00 | 0.00 | 71 | 1012.1 |
| 20260502030044 | 53 | 265 | 4.3 | 9.6 | 0.00 | 0.00 | 0.00 | 69 | 1012.2 |
| 20260502025535 | 53 | 274 | 4.3 | 7.8 | 0.00 | 0.00 | 0.00 | 67 | 1012.1 |
| 20260502025033 | 53 | 246 | 1.7 | 6.1 | 0.00 | 0.00 | 0.00 | 70 | 1012.2 |
| 20260502024552 | 53 | 308 | 0.0 | 4.3 | 0.00 | 0.00 | 0.00 | 70 | 1012.0 |
| 20260502024053 | 54 | 266 | 0.0 | 2.6 | 0.00 | 0.00 | 0.00 | 70 | 1012.1 |
| 20260502023527 | 54 | 266 | 1.7 | 2.6 | 0.00 | 0.00 | 0.00 | 70 | 1012.0 |
| 20260502023051 | 54 | 355 | 0.9 | 2.6 | 0.00 | 0.00 | 0.00 | 70 | 1011.9 |
| 20260502022531 | 54 | 309 | 0.9 | 2.6 | 0.00 | 0.00 | 0.00 | 70 | 1012.1 |
| 20260502022029 | 54 | 341 | 0.9 | 4.3 | 0.00 | 0.00 | 0.00 | 69 | 1012.2 |
| 20260502021603 | 54 | 344 | 0.9 | 4.3 | 0.00 | 0.00 | 0.00 | 67 | 1012.0 |
| 20260502021044 | 54 | 36 | 0.9 | 5.2 | 0.00 | 0.00 | 0.00 | 67 | 1012.1 |
| 20260502020542 | 54 | 13 | 2.6 | 7.0 | 0.00 | 0.00 | 0.00 | 67 | 1011.9 |
| 20260502020044 | 54 | 316 | 3.5 | 7.0 | 0.00 | 0.00 | 0.00 | 68 | 1012.0 |
| 20260502015603 | 54 | 5 | 1.7 | 7.8 | 0.00 | 0.00 | 0.00 | 67 | 1011.9 |
| 20260502015044 | 54 | 355 | 3.5 | 7.8 | 0.00 | 0.00 | 0.00 | 68 | 1011.9 |
| 20260502014541 | 54 | 11 | 2.6 | 8.7 | 0.00 | 0.00 | 0.00 | 68 | 1011.9 |
| 20260502014035 | 54 | 30 | 2.6 | 8.7 | 0.00 | 0.00 | 0.00 | 68 | 1011.8 |
| 20260502013550 | 54 | 11 | 3.5 | 8.7 | 0.00 | 0.00 | 0.00 | 67 | 1011.8 |
| 20260502013048 | 55 | 12 | 1.7 | 7.0 | 0.00 | 0.00 | 0.00 | 66 | 1011.6 |
| 20260502012543 | 55 | 5 | 3.5 | 10.4 | 0.00 | 0.00 | 0.00 | 66 | 1011.5 |
| 20260502012037 | 55 | 5 | 4.3 | 10.4 | 0.00 | 0.00 | 0.00 | 66 | 1011.2 |
| 20260502011530 | 55 | 5 | 4.3 | 8.7 | 0.00 | 0.00 | 0.00 | 65 | 1011.4 |
| 20260502011026 | 56 | 343 | 4.3 | 8.7 | 0.00 | 0.00 | 0.00 | 65 | 1011.4 |
| 20260502010603 | 56 | 323 | 2.6 | 7.0 | 0.00 | 0.00 | 0.00 | 66 | 1011.1 |
| 20260502010045 | 56 | 350 | 3.5 | 9.6 | 0.00 | 0.00 | 0.00 | 66 | 1011.0 |
| 20260502005543 | 55 | 351 | 5.2 | 9.6 | 0.00 | 0.00 | 0.00 | 66 | 1010.9 |
| 20260502005105 | 56 | 5 | 2.6 | 4.3 | 0.00 | 0.00 | 0.00 | 66 | 1010.5 |
| 20260502004539 | 56 | 273 | 0.0 | 1.7 | 0.00 | 0.00 | 0.00 | 64 | 1010.2 |
| 20260502004034 | 56 | 5 | 0.9 | 1.7 | 0.00 | 0.00 | 0.00 | 66 | 1010.2 |
| 20260502003531 | 56 | 289 | 0.0 | 3.5 | 0.00 | 0.00 | 0.00 | 67 | 1010.0 |
| 20260502003026 | 57 | 289 | 0.9 | 4.3 | 0.00 | 0.00 | 0.00 | 66 | 1010.0 |
| 20260502002542 | 57 | 236 | 1.7 | 4.3 | 0.00 | 0.00 | 0.00 | 65 | 1009.9 |
| 20260502002042 | 57 | 160 | 0.9 | 3.5 | 0.00 | 0.00 | 0.00 | 65 | 1009.8 |
| 20260502001540 | 57 | 130 | 1.7 | 4.3 | 0.00 | 0.00 | 0.00 | 64 | 1009.6 |
| 20260502001035 | 57 | 150 | 0.9 | 4.3 | 0.00 | 0.00 | 0.00 | 65 | 1009.8 |
| 20260502000527 | 57 | 135 | 1.7 | 5.2 | 0.00 | 0.00 | 0.00 | 65 | 1009.8 |
| 20260502000106 | 57 | 156 | 2.6 | 5.2 | 0.00 | 0.00 | 0.00 | 63 | 1009.9 |
| 20260501235603 | 58 | 146 | 2.6 | 7.0 | 0.00 | 0.00 | 0.00 | 64 | 1009.7 |
| 20260501235043 | 58 | 139 | 4.3 | 7.0 | 0.00 | 0.00 | 0.00 | 63 | 1009.5 |
| 20260501234540 | 58 | 132 | 4.3 | 7.0 | 0.00 | 0.00 | 0.00 | 63 | 1009.5 |
| 20260501234059 | 58 | 128 | 3.5 | 7.0 | 0.00 | 0.00 | 0.00 | 64 | 1009.4 |
| 20260501233552 | 58 | 132 | 4.3 | 7.0 | 0.00 | 0.00 | 0.00 | 62 | 1009.5 |
| 20260501233026 | 59 | 123 | 3.5 | 6.1 | 0.00 | 0.00 | 0.00 | 63 | 1009.4 |
| 20260501232543 | 59 | 140 | 4.3 | 6.1 | 0.00 | 0.00 | 0.00 | 62 | 1009.5 |
| 20260501232042 | 59 | 131 | 3.5 | 4.3 | 0.00 | 0.00 | 0.00 | 61 | 1009.5 |
| 20260501231542 | 59 | 128 | 3.5 | 4.3 | 0.00 | 0.00 | 0.00 | 61 | 1009.6 |
| 20260501231038 | 59 | 117 | 3.5 | 7.0 | 0.00 | 0.00 | 0.00 | 61 | 1009.6 |
| 20260501230557 | 59 | 122 | 3.5 | 7.0 | 0.00 | 0.00 | 0.00 | 61 | 1009.5 |
| 20260501230032 | 59 | 121 | 3.5 | 6.1 | 0.00 | 0.00 | 0.00 | 61 | 1009.6 |
| 20260501225546 | 59 | 139 | 3.5 | 4.3 | 0.00 | 0.00 | 0.00 | 60 | 1009.6 |
| 20260501225104 | 59 | 124 | 3.5 | 5.2 | 0.00 | 0.00 | 0.00 | 61 | 1009.7 |
| 20260501224539 | 59 | 137 | 2.6 | 4.3 | 0.00 | 0.00 | 0.00 | 60 | 1009.7 |
| 20260501224040 | 59 | 137 | 2.6 | 3.5 | 0.00 | 0.00 | 0.00 | 61 | 1009.8 |
| 20260501223542 | 59 | 292 | 0.0 | 0.9 | 0.00 | 0.00 | 0.00 | 61 | 1009.6 |
| 20260501223045 | 59 | 292 | 0.0 | 2.6 | 0.00 | 0.00 | 0.00 | 63 | 1009.6 |
| 20260501222539 | 59 | 292 | 0.9 | 7.8 | 0.00 | 0.00 | 0.00 | 63 | 1009.8 |
| 20260501222041 | 59 | 292 | 1.7 | 7.8 | 0.00 | 0.00 | 0.00 | 62 | 1010.1 |
| 20260501221540 | 58 | 270 | 2.6 | 6.1 | 0.00 | 0.00 | 0.00 | 64 | 1010.1 |